Time,TemperatureF,DewpointF,PressureIn,WindDirection,WindDirectionDegrees,WindSpeedMPH,WindSpeedGustMPH,Humidity,HourlyPrecipIn,Conditions,Clouds,dailyrainin,SoftwareType,DateUTC
2013-01-12 00:03:00,78.0,-99.9,29.98,ENE,70,16.0,18.0,-999,-99.99,,,-99.99,,2013-01-12 04:03:00,
2013-01-12 00:12:00,78.0,-99.9,29.98,ENE,70,16.0,18.0,-999,-99.99,,,-99.99,,2013-01-12 04:12:00,
2013-01-12 00:22:00,78.0,-99.9,29.98,ENE,70,16.0,18.0,-999,-99.99,,,-99.99,,2013-01-12 04:22:00,
2013-01-12 00:33:00,78.0,-99.9,29.98,ENE,70,13.0,18.0,-999,-99.99,,,-99.99,,2013-01-12 04:33:00,
2013-01-12 00:43:00,78.0,-99.9,29.98,ENE,70,13.0,18.0,-999,-99.99,,,-99.99,,2013-01-12 04:43:00,
2013-01-12 00:53:00,78.0,-99.9,29.98,ENE,70,13.0,18.0,-999,-99.99,,,-99.99,,2013-01-12 04:53:00,
2013-01-12 01:04:00,77.0,-99.9,29.98,East,100,16.0,20.0,-999,-99.99,,,-99.99,,2013-01-12 05:04:00,
2013-01-12 01:12:00,77.0,-99.9,29.98,East,100,16.0,20.0,-999,-99.99,,,-99.99,,2013-01-12 05:12:00,
2013-01-12 01:22:00,77.0,-99.9,29.98,East,100,16.0,20.0,-999,-99.99,,,-99.99,,2013-01-12 05:22:00,
2013-01-12 01:32:00,79.0,-99.9,29.98,ENE,60,18.0,22.0,-999,-99.99,,,-99.99,,2013-01-12 05:32:00,
2013-01-12 01:42:00,79.0,-99.9,29.98,ENE,60,18.0,22.0,-999,-99.99,,,-99.99,,2013-01-12 05:42:00,
2013-01-12 01:53:00,79.0,-99.9,29.98,ENE,60,18.0,22.0,-999,-99.99,,,-99.99,,2013-01-12 05:53:00,
2013-01-12 02:03:00,78.0,-99.9,29.97,ENE,70,16.0,22.0,-999,-99.99,,,-99.99,,2013-01-12 06:03:00,
2013-01-12 02:12:00,78.0,-99.9,29.97,ENE,70,16.0,22.0,-999,-99.99,,,-99.99,,2013-01-12 06:12:00,
2013-01-12 02:23:00,78.0,-99.9,29.97,ENE,70,16.0,22.0,-999,-99.99,,,-99.99,,2013-01-12 06:23:00,
2013-01-12 02:33:00,78.0,-99.9,29.96,ENE,70,16.0,20.0,-999,-99.99,,,-99.99,,2013-01-12 06:33:00,
2013-01-12 02:43:00,78.0,-99.9,29.96,ENE,70,16.0,20.0,-999,-99.99,,,-99.99,,2013-01-12 06:43:00,
2013-01-12 02:53:00,78.0,-99.9,29.96,ENE,70,16.0,20.0,-999,-99.99,,,-99.99,,2013-01-12 06:53:00,
2013-01-12 03:02:00,78.0,-99.9,29.95,ENE,70,13.0,18.0,-999,-99.99,,,-99.99,,2013-01-12 07:02:00,
2013-01-12 03:12:00,78.0,-99.9,29.95,ENE,70,13.0,18.0,-999,-99.99,,,-99.99,,2013-01-12 07:12:00,
2013-01-12 03:22:00,78.0,-99.9,29.95,ENE,70,13.0,18.0,-999,-99.99,,,-99.99,,2013-01-12 07:22:00,
2013-01-12 03:32:00,78.0,-99.9,29.95,ENE,60,13.0,18.0,-999,-99.99,,,-99.99,,2013-01-12 07:32:00,
2013-01-12 03:42:00,78.0,-99.9,29.95,ENE,60,13.0,18.0,-999,-99.99,,,-99.99,,2013-01-12 07:42:00,
2013-01-12 03:53:00,78.0,-99.9,29.95,ENE,60,13.0,18.0,-999,-99.99,,,-99.99,,2013-01-12 07:53:00,
2013-01-12 04:02:00,78.0,-99.9,29.94,ENE,70,13.0,18.0,-999,-99.99,,,-99.99,,2013-01-12 08:02:00,
2013-01-12 04:12:00,78.0,-99.9,29.94,ENE,70,13.0,18.0,-999,-99.99,,,-99.99,,2013-01-12 08:12:00,
2013-01-12 04:22:00,78.0,-99.9,29.94,ENE,70,13.0,18.0,-999,-99.99,,,-99.99,,2013-01-12 08:22:00,
2013-01-12 04:32:00,78.0,-99.9,29.93,ENE,70,13.0,16.0,-999,-99.99,,,-99.99,,2013-01-12 08:32:00,
2013-01-12 04:42:00,78.0,-99.9,29.93,ENE,70,13.0,16.0,-999,-99.99,,,-99.99,,2013-01-12 08:42:00,
2013-01-12 04:53:00,78.0,-99.9,29.93,ENE,70,13.0,16.0,-999,-99.99,,,-99.99,,2013-01-12 08:53:00,
2013-01-12 05:02:00,78.0,-99.9,29.93,NE,50,13.0,18.0,-999,-99.99,,,-99.99,,2013-01-12 09:02:00,
2013-01-12 05:12:00,78.0,-99.9,29.93,NE,50,13.0,18.0,-999,-99.99,,,-99.99,,2013-01-12 09:12:00,
2013-01-12 05:22:00,78.0,-99.9,29.93,NE,50,13.0,18.0,-999,-99.99,,,-99.99,,2013-01-12 09:22:00,
2013-01-12 05:33:00,78.0,-99.9,29.94,ENE,60,13.0,18.0,-999,-99.99,,,-99.99,,2013-01-12 09:33:00,
2013-01-12 05:43:00,78.0,-99.9,29.94,ENE,60,13.0,18.0,-999,-99.99,,,-99.99,,2013-01-12 09:43:00,
2013-01-12 05:53:00,78.0,-99.9,29.94,ENE,60,13.0,18.0,-999,-99.99,,,-99.99,,2013-01-12 09:53:00,
2013-01-12 06:02:00,78.0,-99.9,29.94,ENE,60,13.0,18.0,-999,-99.99,,,-99.99,,2013-01-12 10:02:00,
2013-01-12 06:12:00,78.0,-99.9,29.94,ENE,60,13.0,18.0,-999,-99.99,,,-99.99,,2013-01-12 10:12:00,
2013-01-12 06:22:00,78.0,-99.9,29.94,ENE,60,13.0,18.0,-999,-99.99,,,-99.99,,2013-01-12 10:22:00,
2013-01-12 06:33:00,78.0,-99.9,29.95,ENE,60,11.0,16.0,-999,-99.99,,,-99.99,,2013-01-12 10:33:00,
2013-01-12 06:43:00,78.0,-99.9,29.95,ENE,60,11.0,16.0,-999,-99.99,,,-99.99,,2013-01-12 10:43:00,
2013-01-12 06:52:00,78.0,-99.9,29.95,ENE,60,11.0,16.0,-999,-99.99,,,-99.99,,2013-01-12 10:52:00,
2013-01-12 07:02:00,77.0,-99.9,29.95,NE,40,16.0,18.0,-999,-99.99,,,-99.99,,2013-01-12 11:02:00,
2013-01-12 07:12:00,77.0,-99.9,29.95,NE,40,16.0,18.0,-999,-99.99,,,-99.99,,2013-01-12 11:12:00,
2013-01-12 07:23:00,77.0,-99.9,29.95,NE,40,16.0,18.0,-999,-99.99,,,-99.99,,2013-01-12 11:23:00,
2013-01-12 07:33:00,78.0,-99.9,29.96,NE,50,11.0,16.0,-999,-99.99,,,-99.99,,2013-01-12 11:33:00,
2013-01-12 07:43:00,78.0,-99.9,29.96,NE,50,11.0,16.0,-999,-99.99,,,-99.99,,2013-01-12 11:43:00,
2013-01-12 07:53:00,78.0,-99.9,29.96,NE,50,11.0,16.0,-999,-99.99,,,-99.99,,2013-01-12 11:53:00,
2013-01-12 08:03:00,74.0,-99.9,29.96,SSE,150,7.0,11.0,-999,-99.99,,,-99.99,,2013-01-12 12:03:00,
2013-01-12 08:12:00,74.0,-99.9,29.96,SSE,150,7.0,11.0,-999,-99.99,,,-99.99,,2013-01-12 12:12:00,
2013-01-12 08:22:00,74.0,-99.9,29.96,SSE,150,7.0,11.0,-999,-99.99,,,-99.99,,2013-01-12 12:22:00,
2013-01-12 08:33:00,77.0,-99.9,29.97,NE,50,13.0,18.0,-999,-99.99,,,-99.99,,2013-01-12 12:33:00,
2013-01-12 08:43:00,77.0,-99.9,29.97,NE,50,13.0,18.0,-999,-99.99,,,-99.99,,2013-01-12 12:43:00,
2013-01-12 08:53:00,77.0,-99.9,29.97,NE,50,13.0,18.0,-999,-99.99,,,-99.99,,2013-01-12 12:53:00,
2013-01-12 09:03:00,75.0,-99.9,29.97,South,180,4.0,7.0,-999,-99.99,,,-99.99,,2013-01-12 13:03:00,
2013-01-12 09:12:00,75.0,-99.9,29.97,South,180,4.0,7.0,-999,-99.99,,,-99.99,,2013-01-12 13:12:00,
2013-01-12 09:23:00,75.0,-99.9,29.97,South,180,4.0,7.0,-999,-99.99,,,-99.99,,2013-01-12 13:23:00,
2013-01-12 09:33:00,77.0,-99.9,29.99,SE,130,9.0,13.0,-999,-99.99,,,-99.99,,2013-01-12 13:33:00,
2013-01-12 09:43:00,77.0,-99.9,29.99,SE,130,9.0,13.0,-999,-99.99,,,-99.99,,2013-01-12 13:43:00,
2013-01-12 09:53:00,77.0,-99.9,29.99,SE,130,9.0,13.0,-999,-99.99,,,-99.99,,2013-01-12 13:53:00,
2013-01-12 10:02:00,76.0,-99.9,29.99,SSE,150,4.0,7.0,-999,-99.99,,,-99.99,,2013-01-12 14:02:00,
2013-01-12 10:13:00,76.0,-99.9,29.99,SSE,150,4.0,7.0,-999,-99.99,,,-99.99,,2013-01-12 14:13:00,
2013-01-12 10:22:00,76.0,-99.9,29.99,SSE,150,4.0,7.0,-999,-99.99,,,-99.99,,2013-01-12 14:22:00,
2013-01-12 10:33:00,78.0,-99.9,29.99,East,90,2.0,4.0,-999,-99.99,,,-99.99,,2013-01-12 14:33:00,
2013-01-12 10:43:00,78.0,-99.9,29.99,East,90,2.0,4.0,-999,-99.99,,,-99.99,,2013-01-12 14:43:00,
2013-01-12 10:53:00,78.0,-99.9,29.99,East,90,2.0,4.0,-999,-99.99,,,-99.99,,2013-01-12 14:53:00,
2013-01-12 11:04:00,78.0,-99.9,29.99,East,80,9.0,11.0,-999,-99.99,,,-99.99,,2013-01-12 15:04:00,
2013-01-12 11:13:00,78.0,-99.9,29.99,East,80,9.0,11.0,-999,-99.99,,,-99.99,,2013-01-12 15:13:00,
2013-01-12 11:23:00,78.0,-99.9,29.99,East,80,9.0,11.0,-999,-99.99,,,-99.99,,2013-01-12 15:23:00,
2013-01-12 11:34:00,79.0,-99.9,29.97,East,80,9.0,13.0,-999,-99.99,,,-99.99,,2013-01-12 15:34:00,
2013-01-12 11:43:00,79.0,-99.9,29.97,East,80,9.0,13.0,-999,-99.99,,,-99.99,,2013-01-12 15:43:00,
2013-01-12 11:53:00,79.0,-99.9,29.97,East,80,9.0,13.0,-999,-99.99,,,-99.99,,2013-01-12 15:53:00,
2013-01-12 12:03:00,79.0,-99.9,29.97,ENE,70,9.0,13.0,-999,-99.99,,,-99.99,,2013-01-12 16:03:00,
2013-01-12 12:13:00,79.0,-99.9,29.97,ENE,70,9.0,13.0,-999,-99.99,,,-99.99,,2013-01-12 16:13:00,
2013-01-12 12:23:00,79.0,-99.9,29.97,ENE,70,9.0,13.0,-999,-99.99,,,-99.99,,2013-01-12 16:23:00,
2013-01-12 12:33:00,79.0,-99.9,29.96,ENE,60,9.0,11.0,-999,-99.99,,,-99.99,,2013-01-12 16:33:00,
2013-01-12 12:43:00,79.0,-99.9,29.96,ENE,60,9.0,11.0,-999,-99.99,,,-99.99,,2013-01-12 16:43:00,
2013-01-12 12:53:00,79.0,-99.9,29.96,ENE,60,9.0,11.0,-999,-99.99,,,-99.99,,2013-01-12 16:53:00,
2013-01-12 13:03:00,79.0,-99.9,29.96,ENE,60,11.0,13.0,-999,-99.99,,,-99.99,,2013-01-12 17:03:00,
2013-01-12 13:13:00,79.0,-99.9,29.96,ENE,60,11.0,13.0,-999,-99.99,,,-99.99,,2013-01-12 17:13:00,
2013-01-12 13:23:00,79.0,-99.9,29.96,ENE,60,11.0,13.0,-999,-99.99,,,-99.99,,2013-01-12 17:23:00,
2013-01-12 13:33:00,79.0,-99.9,29.95,ENE,70,11.0,13.0,-999,-99.99,,,-99.99,,2013-01-12 17:33:00,
2013-01-12 13:43:00,79.0,-99.9,29.95,ENE,70,11.0,13.0,-999,-99.99,,,-99.99,,2013-01-12 17:43:00,
2013-01-12 13:53:00,79.0,-99.9,29.95,ENE,70,11.0,13.0,-999,-99.99,,,-99.99,,2013-01-12 17:53:00,
2013-01-12 14:03:00,79.0,-99.9,29.94,ENE,60,11.0,13.0,-999,-99.99,,,-99.99,,2013-01-12 18:03:00,
2013-01-12 14:13:00,79.0,-99.9,29.94,ENE,60,11.0,13.0,-999,-99.99,,,-99.99,,2013-01-12 18:13:00,
2013-01-12 14:23:00,79.0,-99.9,29.94,ENE,60,11.0,13.0,-999,-99.99,,,-99.99,,2013-01-12 18:23:00,
2013-01-12 14:33:00,80.0,-99.9,29.93,ENE,60,11.0,16.0,-999,-99.99,,,-99.99,,2013-01-12 18:33:00,
2013-01-12 14:43:00,80.0,-99.9,29.93,ENE,60,11.0,16.0,-999,-99.99,,,-99.99,,2013-01-12 18:43:00,
2013-01-12 14:53:00,80.0,-99.9,29.93,ENE,60,11.0,16.0,-999,-99.99,,,-99.99,,2013-01-12 18:53:00,
2013-01-12 15:03:00,80.0,-99.9,29.93,NE,50,11.0,16.0,-999,-99.99,,,-99.99,,2013-01-12 19:03:00,
2013-01-12 15:12:00,80.0,-99.9,29.93,NE,50,11.0,16.0,-999,-99.99,,,-99.99,,2013-01-12 19:12:00,
2013-01-12 15:23:00,80.0,-99.9,29.93,NE,50,11.0,16.0,-999,-99.99,,,-99.99,,2013-01-12 19:23:00,
2013-01-12 15:33:00,79.0,-99.9,29.93,NE,50,16.0,18.0,-999,-99.99,,,-99.99,,2013-01-12 19:33:00,
2013-01-12 15:43:00,79.0,-99.9,29.93,NE,50,16.0,18.0,-999,-99.99,,,-99.99,,2013-01-12 19:43:00,
2013-01-12 15:53:00,79.0,-99.9,29.93,NE,50,16.0,18.0,-999,-99.99,,,-99.99,,2013-01-12 19:53:00,
2013-01-12 16:03:00,76.0,-99.9,29.93,ENE,60,16.0,20.0,-999,-99.99,,,-99.99,,2013-01-12 20:03:00,
2013-01-12 16:13:00,76.0,-99.9,29.93,ENE,60,16.0,20.0,-999,-99.99,,,-99.99,,2013-01-12 20:13:00,
2013-01-12 16:22:00,76.0,-99.9,29.93,ENE,60,16.0,20.0,-999,-99.99,,,-99.99,,2013-01-12 20:22:00,
2013-01-12 16:33:00,78.0,-99.9,29.93,NE,50,18.0,20.0,-999,-99.99,,,-99.99,,2013-01-12 20:33:00,
2013-01-12 16:43:00,78.0,-99.9,29.93,NE,50,18.0,20.0,-999,-99.99,,,-99.99,,2013-01-12 20:43:00,
2013-01-12 16:53:00,78.0,-99.9,29.93,NE,50,18.0,20.0,-999,-99.99,,,-99.99,,2013-01-12 20:53:00,
2013-01-12 17:00:00,77.0,-99.9,29.95,NE,50,18.0,22.0,-999,-99.99,,,-99.99,,2013-01-12 21:00:00,
2013-01-12 17:03:00,78.0,-99.9,29.94,NE,50,18.0,22.0,-999,-99.99,,,-99.99,,2013-01-12 21:03:00,
2013-01-12 17:12:00,78.0,-99.9,29.94,NE,50,18.0,22.0,-999,-99.99,,,-99.99,,2013-01-12 21:12:00,
2013-01-12 17:22:00,78.0,-99.9,29.94,NE,50,18.0,22.0,-999,-99.99,,,-99.99,,2013-01-12 21:22:00,
2013-01-12 17:33:00,77.0,-99.9,29.95,NE,50,18.0,22.0,-999,-99.99,,,-99.99,,2013-01-12 21:33:00,
2013-01-12 17:43:00,77.0,-99.9,29.95,NE,50,18.0,22.0,-999,-99.99,,,-99.99,,2013-01-12 21:43:00,
2013-01-12 17:53:00,77.0,-99.9,29.95,NE,50,18.0,22.0,-999,-99.99,,,-99.99,,2013-01-12 21:53:00,
2013-01-12 18:33:00,74.0,-99.9,29.96,ENE,60,11.0,20.0,-999,-99.99,,,-99.99,,2013-01-12 22:33:00,
2013-01-12 18:44:00,74.0,-99.9,29.96,ENE,60,11.0,20.0,-999,-99.99,,,-99.99,,2013-01-12 22:44:00,
2013-01-12 18:53:00,74.0,-99.9,29.96,ENE,60,11.0,20.0,-999,-99.99,,,-99.99,,2013-01-12 22:53:00,
2013-01-12 19:03:00,76.0,-99.9,29.96,NE,50,22.0,29.0,-999,-99.99,,,-99.99,,2013-01-12 23:03:00,
2013-01-12 19:13:00,76.0,-99.9,29.96,NE,50,22.0,29.0,-999,-99.99,,,-99.99,,2013-01-12 23:13:00,
2013-01-12 19:23:00,76.0,-99.9,29.96,NE,50,22.0,29.0,-999,-99.99,,,-99.99,,2013-01-12 23:23:00,
2013-01-12 19:33:00,76.0,-99.9,29.96,ENE,60,20.0,25.0,-999,-99.99,,,-99.99,,2013-01-12 23:33:00,
2013-01-12 19:43:00,76.0,-99.9,29.96,ENE,60,20.0,25.0,-999,-99.99,,,-99.99,,2013-01-12 23:43:00,
2013-01-12 19:53:00,76.0,-99.9,29.96,ENE,60,20.0,25.0,-999,-99.99,,,-99.99,,2013-01-12 23:53:00,
2013-01-12 20:03:00,77.0,-99.9,29.96,ENE,60,18.0,22.0,-999,-99.99,,,-99.99,,2013-01-13 00:03:00,
2013-01-12 20:13:00,77.0,-99.9,29.96,ENE,60,18.0,22.0,-999,-99.99,,,-99.99,,2013-01-13 00:13:00,
2013-01-12 20:23:00,77.0,-99.9,29.96,ENE,60,18.0,22.0,-999,-99.99,,,-99.99,,2013-01-13 00:23:00,
2013-01-12 20:33:00,77.0,-99.9,29.96,ENE,60,18.0,22.0,-999,-99.99,,,-99.99,,2013-01-13 00:33:00,
2013-01-12 20:43:00,77.0,-99.9,29.96,ENE,60,18.0,22.0,-999,-99.99,,,-99.99,,2013-01-13 00:43:00,
2013-01-12 20:53:00,77.0,-99.9,29.96,ENE,60,18.0,22.0,-999,-99.99,,,-99.99,,2013-01-13 00:53:00,
2013-01-12 21:03:00,78.0,-99.9,29.96,ENE,70,18.0,22.0,-999,-99.99,,,-99.99,,2013-01-13 01:03:00,
2013-01-12 21:12:00,78.0,-99.9,29.96,ENE,70,18.0,22.0,-999,-99.99,,,-99.99,,2013-01-13 01:12:00,
2013-01-12 21:23:00,78.0,-99.9,29.96,ENE,70,18.0,22.0,-999,-99.99,,,-99.99,,2013-01-13 01:23:00,
2013-01-12 21:33:00,78.0,-99.9,29.97,ENE,70,16.0,20.0,-999,-99.99,,,-99.99,,2013-01-13 01:33:00,
2013-01-12 21:43:00,78.0,-99.9,29.97,ENE,70,16.0,20.0,-999,-99.99,,,-99.99,,2013-01-13 01:43:00,
2013-01-12 21:53:00,78.0,-99.9,29.97,ENE,70,16.0,20.0,-999,-99.99,,,-99.99,,2013-01-13 01:53:00,
2013-01-12 22:03:00,78.0,-99.9,29.97,ENE,70,16.0,20.0,-999,-99.99,,,-99.99,,2013-01-13 02:03:00,
2013-01-12 22:13:00,78.0,-99.9,29.97,ENE,70,16.0,20.0,-999,-99.99,,,-99.99,,2013-01-13 02:13:00,
2013-01-12 22:23:00,78.0,-99.9,29.97,ENE,70,16.0,20.0,-999,-99.99,,,-99.99,,2013-01-13 02:23:00,
2013-01-12 22:33:00,78.0,-99.9,29.97,ENE,60,18.0,22.0,-999,-99.99,,,-99.99,,2013-01-13 02:33:00,
2013-01-12 22:43:00,78.0,-99.9,29.97,ENE,60,18.0,22.0,-999,-99.99,,,-99.99,,2013-01-13 02:43:00,
2013-01-12 22:53:00,78.0,-99.9,29.97,ENE,60,18.0,22.0,-999,-99.99,,,-99.99,,2013-01-13 02:53:00,
2013-01-12 23:03:00,76.0,-99.9,29.97,ENE,70,18.0,22.0,-999,-99.99,,,-99.99,,2013-01-13 03:03:00,
2013-01-12 23:12:00,76.0,-99.9,29.97,ENE,70,18.0,22.0,-999,-99.99,,,-99.99,,2013-01-13 03:12:00,
2013-01-12 23:23:00,76.0,-99.9,29.97,ENE,70,18.0,22.0,-999,-99.99,,,-99.99,,2013-01-13 03:23:00,
2013-01-12 23:33:00,78.0,-99.9,29.97,NE,40,18.0,22.0,-999,-99.99,,,-99.99,,2013-01-13 03:33:00,
2013-01-12 23:43:00,78.0,-99.9,29.97,NE,40,18.0,22.0,-999,-99.99,,,-99.99,,2013-01-13 03:43:00,
2013-01-12 23:53:00,78.0,-99.9,29.97,NE,40,18.0,22.0,-999,-99.99,,,-99.99,,2013-01-13 03:53:00,